TimeCST,TemperatureF,Dew PointF,Humidity,Sea Level PressureIn,VisibilityMPH,Wind Direction,Wind SpeedMPH,Gust SpeedMPH,PrecipitationIn,Events,Conditions,WindDirDegrees,DateUTC
12:25 AM,33.8,28.4,81,29.87,1.2,NNW,11.5,-,0.00,Snow,Light Snow,340,2013-02-27 06:25:00
12:41 AM,32.0,28.4,87,29.87,0.8,NNW,13.8,-,0.00,Snow,Light Snow,330,2013-02-27 06:41:00
12:52 AM,32.0,28.9,88,29.89,0.8,NNW,11.5,-,0.00,Snow,Light Snow,330,2013-02-27 06:52:00
1:26 AM,32.0,28.4,87,29.87,1.0,NW,10.4,-,0.00,Snow,Light Snow,310,2013-02-27 07:26:00
1:33 AM,32.0,28.4,87,29.87,1.0,NW,10.4,-,0.00,Snow,Light Snow,320,2013-02-27 07:33:00
1:40 AM,32.0,28.4,87,29.87,1.0,NW,11.5,-,0.01,Snow,Light Snow,320,2013-02-27 07:40:00
1:52 AM,32.0,28.0,85,29.89,1.0,NW,9.2,-,0.01,Snow,Light Snow,320,2013-02-27 07:52:00
2:34 AM,30.2,28.4,93,29.86,0.8,NW,9.2,-,0.00,Snow,Light Snow,310,2013-02-27 08:34:00
2:52 AM,30.9,28.0,89,29.88,0.8,WNW,8.1,-,0.00,Snow,Light Snow,300,2013-02-27 08:52:00
3:15 AM,30.2,28.4,93,29.86,1.0,WNW,8.1,-,0.00,Snow,Light Snow,300,2013-02-27 09:15:00
3:26 AM,30.2,28.4,93,29.86,1.0,WNW,8.1,-,0.00,Snow,Light Snow,300,2013-02-27 09:26:00
3:52 AM,30.9,28.0,89,29.89,1.0,NW,8.1,-,0.00,Snow,Light Snow,310,2013-02-27 09:52:00
4:32 AM,30.2,28.4,93,29.88,1.5,WNW,9.2,-,0.00,,Overcast,300,2013-02-27 10:32:00
4:52 AM,30.9,28.0,89,29.91,1.0,WNW,10.4,-,0.00,Snow,Light Snow,300,2013-02-27 10:52:00
5:02 AM,30.2,28.4,93,29.89,1.0,NW,10.4,-,0.00,Snow,Light Snow,310,2013-02-27 11:02:00
5:07 AM,30.2,28.4,93,29.89,0.8,WNW,11.5,-,0.00,Snow,Light Snow,300,2013-02-27 11:07:00
5:14 AM,30.2,28.4,93,29.90,0.8,WNW,11.5,-,0.00,Snow,Light Snow,300,2013-02-27 11:14:00
5:35 AM,30.2,28.4,93,29.91,1.0,WNW,11.5,-,0.00,Snow,Light Snow,300,2013-02-27 11:35:00
5:52 AM,30.9,27.0,85,29.94,1.8,WNW,12.7,-,0.00,,Overcast,300,2013-02-27 11:52:00
6:00 AM,30.2,26.6,86,29.92,2.0,WNW,12.7,-,N/A,,Overcast,300,2013-02-27 12:00:00
6:47 AM,30.2,26.6,86,29.93,3.0,NW,15.0,-,N/A,,Haze,310,2013-02-27 12:47:00
6:52 AM,30.9,26.1,82,29.95,3.0,NW,13.8,-,N/A,,Haze,320,2013-02-27 12:52:00
7:04 AM,30.2,26.6,86,29.93,2.5,NW,17.3,-,N/A,,Haze,320,2013-02-27 13:04:00
7:52 AM,30.9,26.1,82,29.96,1.8,WNW,16.1,-,N/A,,Haze,300,2013-02-27 13:52:00
8:03 AM,30.2,26.6,86,29.94,1.8,NW,16.1,-,N/A,,Haze,310,2013-02-27 14:03:00
8:10 AM,30.2,26.6,86,29.94,2.0,NW,18.4,24.2,N/A,,Haze,310,2013-02-27 14:10:00
8:52 AM,30.0,25.0,82,29.98,2.0,NW,15.0,25.3,N/A,,Haze,310,2013-02-27 14:52:00
9:38 AM,30.2,24.8,80,29.95,3.0,NW,13.8,-,N/A,,Haze,310,2013-02-27 15:38:00
9:47 AM,30.2,24.8,80,29.95,2.5,WNW,12.7,-,N/A,,Haze,300,2013-02-27 15:47:00
9:52 AM,30.0,25.0,82,29.98,2.5,WNW,13.8,-,N/A,,Haze,300,2013-02-27 15:52:00
10:19 AM,30.2,24.8,80,29.96,3.0,WNW,15.0,-,N/A,,Haze,300,2013-02-27 16:19:00
10:35 AM,30.2,24.8,80,29.96,2.5,WNW,17.3,-,N/A,,Haze,300,2013-02-27 16:35:00
10:50 AM,32.0,24.8,75,29.96,3.0,NW,20.7,27.6,N/A,,Haze,310,2013-02-27 16:50:00
10:52 AM,32.0,24.1,73,29.98,3.0,NW,19.6,27.6,N/A,,Haze,310,2013-02-27 16:52:00
11:05 AM,32.0,24.8,75,29.97,2.0,NW,18.4,27.6,N/A,,Haze,310,2013-02-27 17:05:00
11:14 AM,32.0,24.8,75,29.97,1.8,WNW,18.4,-,N/A,,Haze,300,2013-02-27 17:14:00
11:23 AM,32.0,24.8,75,29.97,2.0,WNW,23.0,-,N/A,,Haze,300,2013-02-27 17:23:00
11:42 AM,32.0,24.8,75,29.97,3.0,WNW,18.4,26.5,N/A,,Haze,300,2013-02-27 17:42:00
11:52 AM,33.1,25.0,72,29.99,4.0,NW,17.3,26.5,N/A,,Haze,310,2013-02-27 17:52:00
12:01 PM,33.8,24.8,70,29.97,4.0,WNW,20.7,-,N/A,,Haze,300,2013-02-27 18:01:00
12:52 PM,34.0,24.1,67,29.99,5.0,WNW,17.3,-,N/A,,Haze,300,2013-02-27 18:52:00
1:52 PM,36.0,24.1,62,29.99,6.0,NW,20.7,27.6,N/A,,Haze,310,2013-02-27 19:52:00
2:52 PM,37.9,25.0,60,29.99,7.0,NNW,21.9,27.6,N/A,,Overcast,330,2013-02-27 20:52:00
3:52 PM,37.9,26.1,62,30.00,8.0,NNW,15.0,-,N/A,,Mostly Cloudy,330,2013-02-27 21:52:00
4:52 PM,37.9,26.1,62,30.01,8.0,NNW,13.8,-,N/A,,Clear,330,2013-02-27 22:52:00
5:52 PM,37.9,26.1,62,30.03,10.0,NNW,16.1,-,N/A,,Scattered Clouds,330,2013-02-27 23:52:00
6:52 PM,37.0,24.1,59,30.05,10.0,NW,15.0,-,N/A,,Clear,320,2013-02-28 00:52:00
8:52 PM,35.1,23.0,61,30.07,10.0,NW,10.4,-,N/A,,Clear,310,2013-02-28 02:52:00
9:52 PM,36.0,25.0,64,30.09,10.0,NW,16.1,-,N/A,,Clear,320,2013-02-28 03:52:00
10:52 PM,35.1,26.1,70,30.10,7.0,NW,15.0,-,N/A,,Clear,310,2013-02-28 04:52:00
11:52 PM,34.0,26.1,73,30.09,6.0,NW,13.8,-,N/A,,Haze,310,2013-02-28 05:52:00